TimeCDT,TemperatureF,Dew PointF,Humidity,Sea Level PressureIn,VisibilityMPH,Wind Direction,Wind SpeedMPH,Gust SpeedMPH,PrecipitationIn,Events,Conditions,WindDirDegrees,DateUTC
12:53 AM,52.0,10.0,19,29.96,10.0,South,16.1,-,N/A,,Partly Cloudy,180,2013-04-20 05:53:00
1:53 AM,51.1,10.0,19,29.95,10.0,South,18.4,-,N/A,,Scattered Clouds,180,2013-04-20 06:53:00
2:53 AM,50.0,12.9,23,29.94,10.0,South,18.4,-,N/A,,Scattered Clouds,190,2013-04-20 07:53:00
3:53 AM,50.0,14.0,24,29.93,10.0,South,18.4,-,N/A,,Partly Cloudy,190,2013-04-20 08:53:00
4:53 AM,48.9,15.1,26,29.91,10.0,South,17.3,-,N/A,,Clear,180,2013-04-20 09:53:00
5:53 AM,46.9,16.0,29,29.91,10.0,South,16.1,-,N/A,,Partly Cloudy,180,2013-04-20 10:53:00
6:53 AM,44.1,16.0,32,29.92,10.0,SSE,11.5,-,N/A,,Mostly Cloudy,160,2013-04-20 11:53:00
7:53 AM,45.0,17.1,33,29.93,10.0,South,12.7,-,N/A,,Mostly Cloudy,170,2013-04-20 12:53:00
8:53 AM,50.0,19.0,29,29.93,10.0,South,18.4,-,N/A,,Mostly Cloudy,180,2013-04-20 13:53:00
9:53 AM,55.0,19.9,25,29.91,9.0,South,23.0,33.4,N/A,,Mostly Cloudy,190,2013-04-20 14:53:00
10:53 AM,61.0,21.0,21,29.90,8.0,South,24.2,-,N/A,,Mostly Cloudy,190,2013-04-20 15:53:00
11:53 AM,66.0,21.0,18,29.88,9.0,South,20.7,29.9,N/A,,Scattered Clouds,190,2013-04-20 16:53:00
12:53 PM,70.0,17.1,13,29.83,10.0,SSW,20.7,31.1,N/A,,Partly Cloudy,200,2013-04-20 17:53:00
1:53 PM,73.9,15.1,11,29.79,10.0,SSW,16.1,23.0,N/A,,Scattered Clouds,210,2013-04-20 18:53:00
2:53 PM,77.0,14.0,9,29.75,10.0,SSW,20.7,29.9,N/A,,Scattered Clouds,200,2013-04-20 19:53:00
3:53 PM,79.0,10.0,7,29.72,10.0,SW,20.7,27.6,N/A,,Mostly Cloudy,230,2013-04-20 20:53:00
4:53 PM,79.0,8.1,7,29.69,10.0,SW,19.6,24.2,N/A,,Mostly Cloudy,220,2013-04-20 21:53:00
5:53 PM,79.0,7.0,6,29.67,10.0,SW,17.3,29.9,N/A,,Mostly Cloudy,230,2013-04-20 22:53:00
6:53 PM,78.1,1.0,5,29.68,10.0,WSW,17.3,25.3,N/A,,Mostly Cloudy,250,2013-04-20 23:53:00
7:53 PM,73.9,3.0,6,29.70,10.0,WSW,10.4,-,N/A,,Mostly Cloudy,250,2013-04-21 00:53:00
8:53 PM,66.0,6.1,9,29.73,10.0,West,8.1,-,N/A,,Mostly Cloudy,280,2013-04-21 01:53:00
9:53 PM,71.1,19.9,14,29.76,10.0,South,13.8,25.3,N/A,,Mostly Cloudy,190,2013-04-21 02:53:00
10:53 PM,68.0,21.9,17,29.78,10.0,South,25.3,34.5,N/A,,Overcast,180,2013-04-21 03:53:00
11:53 PM,66.0,21.9,19,29.81,10.0,South,19.6,-,N/A,,Overcast,190,2013-04-21 04:53:00